[Iaude] MPEC U168: 2023 UQ3 [a=1.34,e=0.27,i=4.0,H=25.0]

mpec at marsden.cfa.harvard.edu mpec at marsden.cfa.harvard.edu
Sat Oct 21 10:32:40 EDT 2023


M.P.E.C. 2023-U168                             Issued 2023 October 21, 14:31 UT

     The Minor Planet Electronic Circulars contain information on unusual
         minor planets, routine data on comets and natural satellites,
         and occasional editorial announcements.  They are published
    on behalf of Division F of the International Astronomical Union by the
          Minor Planet Center, Smithsonian Astrophysical Observatory,
                          Cambridge, MA 02138, U.S.A.
			  
             Prepared using the Tamkin Foundation Computer Network

                              MPC at CFA.HARVARD.EDU
            URL https://www.minorplanetcenter.net/    ISSN 1523-6714

                                    2023 UQ3                                    


Observations:
     K23U03Q* C2023 10 17.32415201 38 59.444+30 28 33.72         21.66wXEU168F51
     K23U03Q  C2023 10 17.32929401 38 59.339+30 28 16.42         21.63wXEU168F51
     K23U03Q  C2023 10 17.33663901 38 59.161+30 27 51.86         21.86wXEU168F51
     K23U03Q  C2023 10 17.34183101 38 59.060+30 27 34.41         21.43wXEU168F51
     K23U03Q  C2023 10 17.34917601 38 58.882+30 27 09.42         21.67wXEU168F51
     K23U03Q  C2023 10 17.35431801 38 58.756+30 26 51.87         21.91wXEU168F51
     K23U03Q  C2023 10 17.36167501 38 58.584+30 26 27.23         21.78wXEU168F51
     K23U03Q  C2023 10 17.36741201 38 58.440+30 26 07.66         22.03wXEU168F51
     K23U03Q  C2023 10 17.50171701 38 54.859+30 18 21.07         21.39GVEU168F51
     K23U03Q  C2023 10 17.50235901 38 54.835+30 18 18.58         21.39GVEU168F51
     K23U03Q  C2023 10 17.50850101 38 54.679+30 17 57.06         21.66GVEU168F51
     K23U03Q  C2023 10 17.50914301 38 54.676+30 17 54.58         21.84GVEU168F51
     K23U03Q KC2023 10 18.19913401 39 00.06 +29 38 17.0          22.1 VuEU168H21
     K23U03Q KC2023 10 18.20752101 38 59.90 +29 37 48.6          22.0 VuEU168H21
     K23U03Q KC2023 10 18.21311301 38 59.76 +29 37 30.1          22.0 VuEU168H21
     K23U03Q KC2023 10 21.20881101 39 08.08 +26 57 57.5          21.4 GXEU168858
     K23U03Q KC2023 10 21.22443301 39 07.76 +26 57 11.2          21.2 GXEU168858

Observer details:
858 Tebbutt Observatory, Edgewood.  Observer F. B. Zoltowski.  0.51-m f/8.1
    Schmidt-Cassegrain + CCD.
F51 Pan-STARRS 1, Haleakala.  Observers J. Bulger, T. Lowe, P. Minguez, A.
    Schultz, I. Smith.  Measurers K. Chambers, T. de Boer, J. Fairlamb, H.
    Gao, M. Huber, C.-C. Lin, E. Magnier, Y. Ramanjooloo, R. Wainscoat, R.
    Weryk.  1.8-m Ritchey-Chretien + CCD.
H21 Astronomical Research Observatory, Westfield.  Observer R. Holmes.
    Measurers T. Linder, R. Holmes, L. Horn.  0.76-m f/3.0 astrograph + CCD.

Orbital elements:
2023 UQ3                                                 Earth MOID = 0.0478 AU
Epoch 2023 Sept. 13.0 TT = JDT 2460200.5                Veres                   
M  18.56502              (2000.0)            P               Q                  
n   0.63792691     Peri.   81.45620     +0.74113908     +0.66879948             
a   1.3364584      Node   236.54582     -0.64023359     +0.67788625             
e   0.2705775      Incl.    4.01942     -0.20202427     +0.30524988             
P   1.55           H   25.02          G   0.15           U   9                  
Residuals in seconds of arc
231017 F51  0.1+  0.0     231017 F51  0.1+  0.1+    231018 H21  0.1-  0.2+
231017 F51  0.1+  0.0     231017 F51  0.1+  0.0     231018 H21  0.1+  0.2-
231017 F51  0.1-  0.1+    231017 F51  0.1+  0.0     231018 H21  0.1-  0.0
231017 F51  0.1+  0.2+    231017 F51  0.1+  0.2-    231021 858  0.2+  0.0
231017 F51  0.0   0.0     231017 F51  0.0   0.1+    231021 858  0.0   0.0
231017 F51  0.0   0.2-    231017 F51  0.1+  0.1-

Ephemeris:
2023 UQ3                 a,e,i = 1.34, 0.27, 4                   q = 0.9748
Date    TT    R. A. (2000) Decl.     Delta      r    Elong.  Phase     V
2023 09 21    00 56 13.5 +70 05 10   0.07315 1.0293   108.1    68.1    21.8
...
2023 10 06    01 36 04.8 +43 48 54   0.09811 1.0763   139.4    37.2    21.6
...
2023 10 14    01 38 39.2 +33 53 09   0.1189  1.1052   153.3    23.9    21.7
...
2023 10 20    01 39 03.6 +28 00 27   0.1381  1.1282   162.0    15.8    21.8
2023 10 21    01 39 05.9 +27 08 44   0.1416  1.1321   163.3    14.7    21.9
2023 10 22    01 39 08.2 +26 18 56   0.1453  1.1360   164.4    13.6    21.9
...
2023 10 28    01 39 31.1 +21 57 44   0.1690  1.1600   168.8     9.6    22.1
...
2023 11 05    01 40 48.2 +17 36 48   0.2061  1.1927   166.1    11.5    22.7
...
2023 11 20    01 47 07.8 +12 51 39   0.2931  1.2553   152.3    21.4    23.9

M. P. C. Staff               (C) Copyright 2023 MPC           M.P.E.C. 2023-U168





More information about the Iaude mailing list